Weather History for Burbank, CA

Change the Weather History Date:

Monday, June 2, 2014

  Actual Average Record
Temperature  
Mean Temperature 70 °F 67 °F  
Max Temperature 81 °F 78 °F 104 °F (1970)
Min Temperature 58 °F 57 °F 43 °F (1967)
Degree Days  
Heating Degree Days 0 1  
Month to date heating degree days 0 2  
Since 1 June heating degree days 0 2  
Since 1 July heating degree days 659 1558  
Cooling Degree Days 5 3  
Month to date cooling degree days 12 6  
Year to date cooling degree days 374 130  
Since 1 June cooling degree days 12 6  
Growing Degree Days 20 (Base 50)    
Moisture  
Dew Point 51 °F    
Average Humidity 54    
Maximum Humidity 87    
Minimum Humidity 21    
Precipitation  
Precipitation 0.00 in 0.00 in 0.73 in (1999)
Month to date precipitation 0.00 0.01  
Year to date precipitation 4.91 12.45  
Since 1 July precipitation 5.34 17.21  
Sea Level Pressure  
Sea Level Pressure 29.83 in    
Wind  
Wind Speed 6 mph (SE)    
Max Wind Speed 14 mph    
Max Gust Speed 20 mph    
Visibility 9 miles    
Events      
T = Trace of Precipitation, MM = Missing Value Source: NWS Daily Summary

Daily Weather History Graph

Daily Weather History Graph

Search for Another Location

Airport:

Trip Planner

Search our weather history database for the weather conditions in past years. The results will help you decide how hot, cold, wet, or windy it might be!

Date:

Astronomy

Jun. 02, 2014 Rise Set
Actual Time 5:42 AM PDT 8:00 PM PDT
Civil Twilight 5:13 AM PDT 8:29 PM PDT
Nautical Twilight 4:38 AM PDT 9:05 PM PDT
Astronomical Twilight 3:59 AM PDT 9:43 PM PDT
Moon 10:07 AM PDT (6/2) 11:40 PM PDT (6/2)
Length of Visible Light 15h 16m
Length of Day
14h 18m
Waxing Crescent, 22% of the Moon is Illuminated
Jun 2
Waxing Crescent
Jun 5
First Quarter
Jun 12
Full
Jun 19
Last Quarter
Jun 27
New

Hourly Weather History & Observations

Time (PDT) Temp. Dew Point Humidity Pressure Visibility Wind Dir Wind Speed Gust Speed Precip Events Conditions
12:53 AM 64.0 °F 55.0 °F 73% 29.80 in 10.0 mi East 4.6 mph - N/A   Clear
1:53 AM 64.0 °F 53.1 °F 67% 29.79 in 10.0 mi Calm Calm - N/A   Clear
2:53 AM 62.1 °F 55.0 °F 78% 29.80 in 10.0 mi Calm Calm - N/A   Clear
3:53 AM 61.0 °F 55.0 °F 81% 29.81 in 10.0 mi ESE 6.9 mph - N/A   Clear
4:53 AM 59.0 °F 54.0 °F 83% 29.81 in 10.0 mi East 3.5 mph - N/A   Clear
5:53 AM 59.0 °F 54.0 °F 83% 29.83 in 9.0 mi East 3.5 mph - N/A   Clear
6:53 AM 59.0 °F 55.0 °F 87% 29.85 in 5.0 mi SSE 3.5 mph - N/A   Clear
7:19 AM 59.0 °F 55.4 °F 88% 29.88 in 4.0 mi Calm Calm - N/A   Clear
7:20 AM 59.0 °F 55.4 °F 88% 29.88 in 4.0 mi Calm Calm - N/A   Partly Cloudy
7:53 AM 61.0 °F 55.0 °F 81% 29.85 in 5.0 mi Calm Calm - N/A   Haze
8:53 AM 66.0 °F 54.0 °F 65% 29.86 in 9.0 mi Calm Calm - N/A   Clear
9:53 AM 69.1 °F 53.1 °F 57% 29.85 in 10.0 mi Calm Calm - N/A   Clear
11:53 AM 78.1 °F 50.0 °F 37% 29.85 in 10.0 mi SSE 8.1 mph - N/A   Clear
12:53 PM 79.0 °F 48.0 °F 34% 29.83 in 10.0 mi South 10.4 mph - N/A   Clear
1:53 PM 80.1 °F 48.0 °F 32% 29.82 in 10.0 mi South 11.5 mph - N/A   Clear
2:53 PM 79.0 °F 46.9 °F 32% 29.84 in 10.0 mi South 11.5 mph - N/A   Clear
3:53 PM 80.1 °F 37.9 °F 22% 29.83 in 10.0 mi South 11.5 mph 18.4 mph N/A   Clear
4:53 PM 78.1 °F 43.0 °F 29% 29.82 in 10.0 mi South 10.4 mph - N/A   Clear
5:53 PM 75.0 °F 48.9 °F 40% 29.81 in 10.0 mi SSE 11.5 mph - N/A   Clear
6:53 PM 72.0 °F 46.0 °F 40% 29.82 in 10.0 mi South 8.1 mph - N/A   Clear
7:53 PM 68.0 °F 46.0 °F 45% 29.83 in 10.0 mi South 6.9 mph - N/A   Clear
8:53 PM 66.9 °F 46.9 °F 49% 29.83 in 10.0 mi SE 8.1 mph - N/A   Clear
9:53 PM 64.0 °F 50.0 °F 60% 29.84 in 10.0 mi SSE 4.6 mph - N/A   Clear
10:53 PM 64.0 °F 50.0 °F 60% 29.84 in 10.0 mi ENE 3.5 mph - N/A   Clear
11:53 PM 63.0 °F 50.0 °F 63% 29.83 in 10.0 mi SE 4.6 mph - N/A   Clear